EN

Hourly Weather Abbevillers

Today, 19 June, Saturday

Time Temperature Precipitation Wind Pressure Humidity
00:00 +19°C° 0 mm 1 mps 713 mmHg 92%
01:00 +19°C° 0 mm 1 mps 713 mmHg 91%
02:00 +19°C° 0 mm 1 mps 713 mmHg 91%
03:00 +19°C° 0 mm 1 mps 713 mmHg 91%
04:00 +20°C° 0 mm 1 mps 714 mmHg 90%
05:00 +19°C° 0 mm 0 mps 714 mmHg 89%
06:00 +20°C° 0 mm 0 mps 714 mmHg 87%
07:00 +23°C° 0 mm 1 mps 714 mmHg 80%
08:00 +25°C° 0 mm 1 mps 713 mmHg 72%
09:00 +27°C° 0 mm 2 mps 713 mmHg 65%
10:00 +28°C° 0 mm 2 mps 713 mmHg 62%
11:00 +29°C° 0 mm 2 mps 713 mmHg 58%
12:00 +30°C° 0 mm 2 mps 713 mmHg 55%
13:00 +30°C° 0.1 mm 2 mps 712 mmHg 55%
14:00 +30°C° 0.1 mm 2 mps 712 mmHg 56%
15:00 +30°C° 0.1 mm 2 mps 712 mmHg 56%
16:00 +29°C° 0.1 mm 2 mps 711 mmHg 64%
17:00 +28°C° 0.1 mm 1 mps 711 mmHg 72%
18:00 +27°C° 0.1 mm 1 mps 711 mmHg 79%
19:00 +25°C° 0 mm 1 mps 710 mmHg 80%
20:00 +24°C° 0 mm 1 mps 710 mmHg 81%
21:00 +22°C° 0 mm 1 mps 710 mmHg 82%
22:00 +22°C° 0 mm 1 mps 710 mmHg 82%
23:00 +21°C° 0 mm 1 mps 710 mmHg 82%

Tomorrow, 20 June, Sunday

Time Temperature Precipitation Wind Pressure Humidity
00:00 +21°C° 0 mm 1 mps 710 mmHg 82%
01:00 +19°C° 0 mm 2 mps 710 mmHg 85%
02:00 +18°C° 0 mm 2 mps 710 mmHg 88%
03:00 +18°C° 0 mm 2 mps 711 mmHg 91%
04:00 +18°C° 0 mm 2 mps 711 mmHg 90%
05:00 +19°C° 0 mm 1 mps 710 mmHg 88%
06:00 +20°C° 0 mm 1 mps 710 mmHg 87%
07:00 +21°C° 0 mm 1 mps 710 mmHg 82%
08:00 +22°C° 0 mm 1 mps 710 mmHg 77%
09:00 +23°C° 0 mm 1 mps 710 mmHg 72%
10:00 +25°C° 0 mm 2 mps 709 mmHg 67%
11:00 +26°C° 0 mm 2 mps 709 mmHg 61%
12:00 +28°C° 0 mm 3 mps 708 mmHg 55%
13:00 +24°C° 4.2 mm 3 mps 708 mmHg 69%
14:00 +20°C° 4.2 mm 3 mps 709 mmHg 82%
15:00 +15°C° 4.2 mm 4 mps 709 mmHg 96%
16:00 +16°C° 2.1 mm 3 mps 709 mmHg 95%
17:00 +17°C° 2.1 mm 2 mps 708 mmHg 94%
18:00 +19°C° 2.1 mm 1 mps 708 mmHg 92%
19:00 +18°C° 0 mm 1 mps 708 mmHg 93%
20:00 +16°C° 0 mm 1 mps 708 mmHg 94%
21:00 +15°C° 0 mm 1 mps 708 mmHg 95%
22:00 +15°C° 0.2 mm 1 mps 708 mmHg 95%
23:00 +15°C° 0.2 mm 1 mps 708 mmHg 94%

Day after tomorrow, 21 June, Monday

Time Temperature Precipitation Wind Pressure Humidity
00:00 +15°C° 0.2 mm 1 mps 707 mmHg 94%
01:00 +15°C° 0.1 mm 1 mps 708 mmHg 93%
02:00 +15°C° 0.1 mm 1 mps 708 mmHg 93%
03:00 +15°C° 0.1 mm 1 mps 708 mmHg 93%
04:00 +16°C° 0 mm 1 mps 708 mmHg 92%
05:00 +16°C° 0 mm 1 mps 708 mmHg 92%
06:00 +18°C° 0 mm 1 mps 709 mmHg 92%
07:00 +20°C° 0 mm 1 mps 709 mmHg 83%
08:00 +22°C° 0 mm 1 mps 709 mmHg 73%
09:00 +23°C° 0 mm 1 mps 709 mmHg 63%
10:00 +24°C° 0.1 mm 1 mps 709 mmHg 62%
11:00 +24°C° 0.1 mm 1 mps 709 mmHg 61%
12:00 +25°C° 0.1 mm 1 mps 709 mmHg 60%
13:00 +25°C° 0.1 mm 1 mps 709 mmHg 59%
14:00 +25°C° 0.1 mm 1 mps 709 mmHg 59%
15:00 +24°C° 0.1 mm 0 mps 709 mmHg 59%
16:00 +25°C° 0.5 mm 1 mps 709 mmHg 67%
17:00 +23°C° 0.5 mm 1 mps 708 mmHg 76%
18:00 +22°C° 0.5 mm 1 mps 708 mmHg 84%
19:00 +21°C° 0.8 mm 1 mps 708 mmHg 87%
20:00 +19°C° 0.8 mm 1 mps 709 mmHg 90%
21:00 +18°C° 0.8 mm 1 mps 709 mmHg 92%
22:00 +16°C° 0.2 mm 1 mps 709 mmHg 93%
23:00 +16°C° 0.2 mm 1 mps 709 mmHg 93%

22 June, Tuesday

Time Temperature Precipitation Wind Pressure Humidity
00:00 +16°C° 0.2 mm 1 mps 709 mmHg 94%
01:00 +16°C° 0.1 mm 1 mps 709 mmHg 94%
02:00 +16°C° 0.1 mm 1 mps 709 mmHg 94%
03:00 +16°C° 0.1 mm 1 mps 709 mmHg 94%
04:00 +16°C° 0.2 mm 1 mps 709 mmHg 93%
05:00 +18°C° 0.2 mm 1 mps 709 mmHg 93%
06:00 +16°C° 0.2 mm 0 mps 710 mmHg 93%
07:00 +19°C° 0.4 mm 1 mps 710 mmHg 89%
08:00 +20°C° 0.4 mm 1 mps 710 mmHg 86%
09:00 +19°C° 0.4 mm 2 mps 711 mmHg 83%
10:00 +20°C° 0.5 mm 2 mps 711 mmHg 77%
11:00 +23°C° 0.5 mm 1 mps 711 mmHg 72%
12:00 +24°C° 0.5 mm 1 mps 711 mmHg 66%
13:00 +24°C° 0.7 mm 1 mps 711 mmHg 68%
14:00 +24°C° 0.7 mm 1 mps 711 mmHg 70%
15:00 +23°C° 0.7 mm 1 mps 711 mmHg 72%
16:00 +23°C° 0.9 mm 1 mps 712 mmHg 77%
17:00 +22°C° 0.9 mm 1 mps 712 mmHg 83%
18:00 +19°C° 0.9 mm 0 mps 712 mmHg 88%
19:00 +18°C° 0.5 mm 0 mps 712 mmHg 89%
20:00 +18°C° 0.5 mm 1 mps 712 mmHg 90%
21:00 +16°C° 0.5 mm 1 mps 712 mmHg 91%
22:00 +16°C° 0 mm 1 mps 712 mmHg 92%
23:00 +15°C° 0 mm 1 mps 712 mmHg 92%

23 June, Wednesday

Time Temperature Precipitation Wind Pressure Humidity
00:00 +15°C° 0 mm 1 mps 712 mmHg 93%
01:00 +14°C° 0 mm 1 mps 712 mmHg 93%
02:00 +14°C° 0 mm 1 mps 712 mmHg 93%
03:00 +14°C° 0 mm 1 mps 711 mmHg 93%
04:00 +15°C° 0 mm 1 mps 711 mmHg 92%
05:00 +16°C° 0 mm 2 mps 711 mmHg 91%
06:00 +16°C° 0 mm 2 mps 711 mmHg 90%
07:00 +18°C° 0 mm 2 mps 712 mmHg 82%
08:00 +20°C° 0 mm 2 mps 712 mmHg 74%
09:00 +22°C° 0 mm 3 mps 712 mmHg 66%
10:00 +24°C° 0.2 mm 2 mps 712 mmHg 65%
11:00 +24°C° 0.2 mm 2 mps 712 mmHg 63%
12:00 +25°C° 0.2 mm 2 mps 712 mmHg 62%
13:00 +25°C° 1.2 mm 2 mps 712 mmHg 67%
14:00 +24°C° 1.2 mm 3 mps 712 mmHg 72%
15:00 +22°C° 1.2 mm 3 mps 712 mmHg 76%
16:00 +21°C° 2.5 mm 3 mps 712 mmHg 82%
17:00 +20°C° 2.5 mm 3 mps 712 mmHg 87%
18:00 +18°C° 2.5 mm 3 mps 713 mmHg 92%
19:00 +17°C° 2.3 mm 3 mps 713 mmHg 93%
20:00 +16°C° 2.3 mm 2 mps 714 mmHg 94%
21:00 +15°C° 2.3 mm 1 mps 714 mmHg 95%
22:00 +14°C° 0 mm 1 mps 714 mmHg 95%
23:00 +14°C° 0 mm 1 mps 714 mmHg 95%

24 June, Thursday

Time Temperature Precipitation Wind Pressure Humidity
00:00 +13°C° 0 mm 1 mps 714 mmHg 95%
01:00 +13°C° 0 mm 1 mps 714 mmHg 94%
02:00 +13°C° 0 mm 1 mps 714 mmHg 94%
03:00 +13°C° 0 mm 1 mps 714 mmHg 93%
04:00 +14°C° 0 mm 1 mps 714 mmHg 92%
05:00 +15°C° 0 mm 1 mps 715 mmHg 91%
06:00 +16°C° 0 mm 1 mps 715 mmHg 90%
07:00 +18°C° 0.1 mm 1 mps 715 mmHg 84%
08:00 +19°C° 0.1 mm 2 mps 715 mmHg 78%
09:00 +20°C° 0.1 mm 2 mps 716 mmHg 72%
10:00 +20°C° 0.2 mm 2 mps 716 mmHg 70%
11:00 +21°C° 0.2 mm 3 mps 716 mmHg 69%
12:00 +21°C° 0.2 mm 3 mps 716 mmHg 67%
13:00 +21°C° 0.2 mm 3 mps 715 mmHg 68%
14:00 +21°C° 0.2 mm 3 mps 715 mmHg 69%
15:00 +21°C° 0.2 mm 3 mps 715 mmHg 70%
16:00 +20°C° 0.1 mm 2 mps 715 mmHg 75%
17:00 +19°C° 0.1 mm 2 mps 715 mmHg 80%
18:00 +20°C° 0.1 mm 1 mps 715 mmHg 85%
19:00 +18°C° 0.1 mm 1 mps 715 mmHg 88%
20:00 +16°C° 0.1 mm 1 mps 715 mmHg 91%
21:00 +15°C° 0.1 mm 1 mps 715 mmHg 94%
22:00 +14°C° 0 mm 1 mps 715 mmHg 95%
23:00 +14°C° 0 mm 1 mps 715 mmHg 95%
Show more